| time (UTC) | temp F | wind direction | speed knots | gust knots | rain 1hr in | rain 24hr in | rain mn in | humidity % | barometer mb |
| 20260505064600 | 48 | 187 | 0.9 | 3.5 | 0.02 | 1.45 | 0.30 | 98 | 1012.7 |
| 20260505063057 | 47 | 250 | 0.0 | 3.5 | 0.02 | 1.44 | 0.29 | 98 | 1012.6 |
| 20260505061559 | 47 | 0 | 0.9 | 1.7 | 0.02 | 1.44 | 0.29 | 98 | 1012.4 |
| 20260505060104 | 47 | 202 | 0.0 | 2.6 | 0.03 | 1.43 | 0.28 | 98 | 1012.4 |
| 20260505054601 | 47 | 5 | 1.7 | 6.1 | 0.04 | 1.43 | 0.28 | 99 | 1012.4 |
| 20260505053058 | 47 | 190 | 0.9 | 4.3 | 0.07 | 1.42 | 0.27 | 99 | 1012.3 |
| 20260505051553 | 47 | 0 | 0.9 | 3.5 | 0.09 | 1.41 | 0.26 | 99 | 1012.4 |
| 20260505041603 | 48 | 0 | 0.9 | 3.5 | 0.01 | 1.32 | 0.17 | 100 | 1012.0 |
| 20260505040058 | 48 | 0 | 0.9 | 5.2 | 0.00 | 1.31 | 0.16 | 100 | 1011.9 |
| 20260505034555 | 48 | 38 | 0.0 | 2.6 | 0.01 | 1.31 | 0.16 | 100 | 1012.0 |
| 20260505033056 | 48 | 192 | 0.0 | 2.6 | 0.02 | 1.31 | 0.16 | 100 | 1012.2 |
| 20260505031555 | 48 | 0 | 0.9 | 3.5 | 0.02 | 1.30 | 0.15 | 100 | 1012.0 |
| 20260505030126 | 48 | 123 | 0.0 | 3.5 | 0.02 | 1.30 | 0.15 | 100 | 1012.1 |
| 20260505024559 | 48 | 0 | 0.9 | 5.2 | 0.03 | 1.30 | 0.14 | 100 | 1012.4 |
| 20260505023056 | 48 | 0 | 0.9 | 3.5 | 0.03 | 1.29 | 0.14 | 100 | 1012.2 |
| 20260505021555 | 48 | 355 | 0.0 | 2.6 | 0.03 | 1.29 | 0.13 | 100 | 1012.2 |
| 20260505020100 | 48 | 161 | 0.9 | 5.2 | 0.03 | 1.29 | 0.13 | 100 | 1012.0 |
| 20260505014610 | 48 | 230 | 0.9 | 4.3 | 0.02 | 1.26 | 0.11 | 100 | 1012.3 |
| 20260505013056 | 48 | 138 | 0.9 | 6.1 | 0.02 | 1.25 | 0.10 | 100 | 1012.3 |
| 20260505011558 | 48 | 265 | 3.5 | 9.6 | 0.02 | 1.25 | 0.10 | 100 | 1012.4 |
| 20260505010103 | 48 | 113 | 0.9 | 4.3 | 0.02 | 1.25 | 0.09 | 100 | 1012.4 |
| 20260505004556 | 48 | 184 | 0.9 | 4.3 | 0.02 | 1.24 | 0.08 | 100 | 1012.6 |
| 20260505003101 | 48 | 182 | 0.9 | 5.2 | 0.02 | 1.23 | 0.07 | 100 | 1012.7 |
| 20260505001557 | 48 | 208 | 0.9 | 4.3 | 0.03 | 1.23 | 0.07 | 100 | 1012.5 |
| 20260504234557 | 48 | 176 | 0.9 | 3.5 | 0.02 | 1.22 | 0.06 | 100 | 1012.6 |
| 20260504233059 | 48 | 0 | 1.7 | 5.2 | 0.03 | 1.21 | 0.05 | 100 | 1012.6 |
| 20260504231555 | 48 | 87 | 0.9 | 6.1 | 0.04 | 1.20 | 0.04 | 100 | 1012.7 |
| 20260504230057 | 48 | 167 | 1.7 | 6.1 | 0.03 | 1.19 | 0.03 | 100 | 1012.7 |
| 20260504224556 | 49 | 80 | 0.9 | 4.3 | 0.03 | 1.19 | 0.03 | 100 | 1012.8 |
| 20260504223120 | 49 | 163 | 0.0 | 2.6 | 0.03 | 1.18 | 0.02 | 100 | 1013.0 |
| 20260504221600 | 49 | 227 | 0.9 | 5.2 | 0.00 | 1.15 | 0.00 | 100 | 1013.1 |
| 20260504220059 | 49 | 0 | 0.9 | 4.3 | 0.00 | 1.15 | 0.00 | 100 | 1013.0 |
| 20260504214557 | 50 | 171 | 0.9 | 3.5 | 0.01 | 1.15 | 1.15 | 100 | 1013.0 |
| 20260504213106 | 50 | 0 | 0.9 | 5.2 | 0.03 | 1.14 | 1.14 | 100 | 1013.3 |
| 20260504211649 | 49 | 219 | 1.7 | 3.5 | 0.06 | 1.14 | 1.14 | 100 | 1013.2 |
| 20260504210058 | 50 | 84 | 0.9 | 8.7 | 0.13 | 1.14 | 1.14 | 100 | 1013.3 |
| 20260504204558 | 49 | 121 | 0.9 | 6.1 | 0.18 | 1.14 | 1.14 | 100 | 1013.2 |
| 20260504203108 | 49 | 134 | 1.7 | 7.0 | 0.19 | 1.11 | 1.11 | 100 | 1013.1 |
| 20260504201611 | 50 | 216 | 2.6 | 7.0 | 0.19 | 1.08 | 1.08 | 100 | 1013.0 |
| 20260504194558 | 50 | 275 | 2.6 | 9.6 | 0.14 | 0.95 | 0.95 | 100 | 1012.5 |
| 20260504193107 | 51 | 265 | 0.9 | 6.1 | 0.17 | 0.91 | 0.91 | 100 | 1012.1 |
| 20260504191611 | 52 | 26 | 0.0 | 2.6 | 0.35 | 0.88 | 0.88 | 100 | 1011.7 |
| 20260504190106 | 52 | 46 | 0.9 | 2.6 | 0.40 | 0.82 | 0.82 | 100 | 1011.5 |
| 20260504184556 | 51 | 0 | 0.0 | 2.6 | 0.54 | 0.81 | 0.81 | 100 | 1011.3 |
| 20260504183056 | 51 | 0 | 0.0 | 2.6 | 0.60 | 0.74 | 0.74 | 100 | 1011.6 |
| 20260504181603 | 51 | 0 | 0.9 | 4.3 | 0.46 | 0.53 | 0.53 | 100 | 1011.3 |
| 20260504180057 | 52 | 202 | 1.7 | 4.3 | 0.36 | 0.41 | 0.41 | 100 | 1011.4 |
| 20260504174557 | 53 | 134 | 0.9 | 4.3 | 0.21 | 0.26 | 0.26 | 100 | 1011.6 |
| 20260504173057 | 53 | 140 | 0.0 | 7.8 | 0.07 | 0.13 | 0.13 | 100 | 1011.4 |
| 20260504171556 | 53 | 121 | 0.9 | 6.1 | 0.01 | 0.07 | 0.07 | 100 | 1011.3 |
| 20260504110105 | 58 | 272 | 0.9 | 3.5 | 0.00 | 0.05 | 0.05 | 100 | 1013.4 |
| 20260504081605 | 56 | 123 | 0.9 | 4.3 | 0.00 | 0.00 | 0.00 | 100 | 1013.8 |